• In Belarus
  • List of Countries
  • For 7 days
  • Water Temperature
  • Satellite Maps
  • Weather Map
  • Weather Widgets
  • user-avatar
    Login

    Hourly Weather Cap-Haitien

    Today, 17 December, Sunday

    Time Temperature Precipitation Wind Pressure Humidity
    00:00 +23°C° 0 mm 6 mps 763 mmHg 95%
    01:00 +22°C° 0 mm 6 mps 763 mmHg 94%
    02:00 +22°C° 0 mm 6 mps 763 mmHg 94%
    03:00 +22°C° 0 mm 6 mps 763 mmHg 94%
    04:00 +22°C° 0 mm 6 mps 763 mmHg 93%
    05:00 +22°C° 0 mm 6 mps 763 mmHg 92%
    06:00 +22°C° 0 mm 6 mps 764 mmHg 91%
    07:00 +22°C° 0 mm 6 mps 764 mmHg 90%
    08:00 +24°C° 0 mm 7 mps 764 mmHg 79%
    09:00 +28°C° 0 mm 7 mps 765 mmHg 67%
    10:00 +31°C° 0 mm 8 mps 765 mmHg 55%
    11:00 +32°C° 0 mm 8 mps 764 mmHg 54%
    12:00 +32°C° 0 mm 9 mps 764 mmHg 53%
    13:00 +33°C° 0 mm 9 mps 763 mmHg 52%
    14:00 +32°C° 0 mm 9 mps 763 mmHg 56%
    15:00 +32°C° 0 mm 10 mps 763 mmHg 61%
    16:00 +31°C° 0 mm 10 mps 763 mmHg 65%
    17:00 +28°C° 0 mm 9 mps 763 mmHg 71%
    18:00 +27°C° 0 mm 8 mps 763 mmHg 78%
    19:00 +26°C° 0 mm 8 mps 764 mmHg 84%
    20:00 +24°C° 0 mm 8 mps 764 mmHg 86%
    21:00 +24°C° 0 mm 7 mps 764 mmHg 87%
    22:00 +23°C° 0 mm 7 mps 764 mmHg 89%
    23:00 +23°C° 0 mm 7 mps 764 mmHg 88%

    Tomorrow, 18 December, Monday

    Time Temperature Precipitation Wind Pressure Humidity
    00:00 +22°C° 0 mm 6 mps 764 mmHg 87%
    01:00 +22°C° 0 mm 6 mps 764 mmHg 87%
    02:00 +22°C° 0.1 mm 6 mps 763 mmHg 86%
    03:00 +22°C° 0.1 mm 6 mps 763 mmHg 85%
    04:00 +21°C° 0.1 mm 6 mps 763 mmHg 84%
    05:00 +22°C° 0.1 mm 6 mps 763 mmHg 83%
    06:00 +22°C° 0.1 mm 6 mps 763 mmHg 83%
    07:00 +22°C° 0.1 mm 6 mps 764 mmHg 82%
    08:00 +26°C° 0.1 mm 7 mps 764 mmHg 75%
    09:00 +28°C° 0.1 mm 8 mps 764 mmHg 68%
    10:00 +32°C° 0.1 mm 9 mps 765 mmHg 61%
    11:00 +32°C° 0 mm 9 mps 764 mmHg 60%
    12:00 +33°C° 0 mm 9 mps 763 mmHg 59%
    13:00 +33°C° 0 mm 9 mps 763 mmHg 58%
    14:00 +32°C° 0 mm 9 mps 763 mmHg 61%
    15:00 +32°C° 0 mm 9 mps 762 mmHg 65%
    16:00 +31°C° 0 mm 8 mps 762 mmHg 68%
    17:00 +29°C° 0 mm 8 mps 763 mmHg 76%
    18:00 +27°C° 0 mm 7 mps 763 mmHg 84%
    19:00 +26°C° 0 mm 7 mps 763 mmHg 92%
    20:00 +24°C° 0.1 mm 6 mps 764 mmHg 93%
    21:00 +24°C° 0.1 mm 6 mps 764 mmHg 94%
    22:00 +24°C° 0.1 mm 6 mps 764 mmHg 95%
    23:00 +24°C° 0.1 mm 6 mps 764 mmHg 95%

    Day after tomorrow, 19 December, Tuesday

    Time Temperature Precipitation Wind Pressure Humidity
    00:00 +23°C° 0.1 mm 5 mps 764 mmHg 95%
    01:00 +23°C° 0.1 mm 5 mps 764 mmHg 95%
    02:00 +23°C° 0.2 mm 5 mps 763 mmHg 95%
    03:00 +23°C° 0.2 mm 5 mps 763 mmHg 94%
    04:00 +22°C° 0.2 mm 5 mps 763 mmHg 94%
    05:00 +23°C° 0.1 mm 5 mps 763 mmHg 93%
    06:00 +23°C° 0.1 mm 5 mps 763 mmHg 92%
    07:00 +23°C° 0.1 mm 5 mps 764 mmHg 91%
    08:00 +26°C° 0.1 mm 6 mps 764 mmHg 81%
    09:00 +29°C° 0.1 mm 6 mps 764 mmHg 72%
    10:00 +32°C° 0.1 mm 7 mps 765 mmHg 63%
    11:00 +32°C° 0 mm 7 mps 764 mmHg 61%
    12:00 +33°C° 0 mm 8 mps 763 mmHg 60%
    13:00 +34°C° 0 mm 8 mps 763 mmHg 58%
    14:00 +33°C° 0 mm 8 mps 762 mmHg 62%
    15:00 +32°C° 0 mm 8 mps 762 mmHg 66%
    16:00 +31°C° 0 mm 8 mps 762 mmHg 70%
    17:00 +28°C° 0 mm 8 mps 762 mmHg 77%
    18:00 +27°C° 0 mm 7 mps 762 mmHg 84%
    19:00 +24°C° 0 mm 7 mps 763 mmHg 92%
    20:00 +24°C° 0.1 mm 7 mps 763 mmHg 93%
    21:00 +24°C° 0.1 mm 6 mps 763 mmHg 94%
    22:00 +24°C° 0.1 mm 6 mps 764 mmHg 95%
    23:00 +23°C° 0.1 mm 6 mps 763 mmHg 96%

    20 December, Wednesday

    Time Temperature Precipitation Wind Pressure Humidity
    00:00 +23°C° 0.1 mm 6 mps 763 mmHg 96%
    01:00 +23°C° 0.1 mm 6 mps 763 mmHg 96%
    02:00 +23°C° 0.1 mm 6 mps 762 mmHg 96%
    03:00 +23°C° 0.1 mm 5 mps 762 mmHg 96%
    04:00 +23°C° 0.1 mm 5 mps 762 mmHg 96%
    05:00 +23°C° 0.1 mm 5 mps 762 mmHg 95%
    06:00 +23°C° 0.1 mm 5 mps 763 mmHg 95%
    07:00 +23°C° 0.1 mm 5 mps 763 mmHg 94%
    08:00 +26°C° 0 mm 5 mps 763 mmHg 82%
    09:00 +28°C° 0 mm 6 mps 764 mmHg 69%
    10:00 +30°C° 0 mm 6 mps 764 mmHg 57%
    11:00 +32°C° 0 mm 6 mps 763 mmHg 55%
    12:00 +32°C° 0 mm 6 mps 762 mmHg 54%
    13:00 +33°C° 0 mm 7 mps 761 mmHg 52%
    14:00 +32°C° 0 mm 7 mps 761 mmHg 57%
    15:00 +32°C° 0 mm 7 mps 761 mmHg 62%
    16:00 +30°C° 0 mm 7 mps 760 mmHg 66%
    17:00 +28°C° 0 mm 6 mps 761 mmHg 75%
    18:00 +27°C° 0 mm 6 mps 761 mmHg 84%
    19:00 +25°C° 0 mm 5 mps 762 mmHg 93%
    20:00 +25°C° 0.1 mm 5 mps 762 mmHg 93%
    21:00 +25°C° 0.1 mm 5 mps 762 mmHg 94%
    22:00 +23°C° 0.1 mm 5 mps 762 mmHg 95%
    23:00 +23°C° 0 mm 4 mps 762 mmHg 95%

    21 December, Thursday

    Time Temperature Precipitation Wind Pressure Humidity
    00:00 +22°C° 0 mm 4 mps 762 mmHg 95%
    01:00 +22°C° 0 mm 4 mps 761 mmHg 94%
    02:00 +21°C° 0 mm 4 mps 761 mmHg 93%
    03:00 +21°C° 0 mm 4 mps 761 mmHg 92%
    04:00 +21°C° 0 mm 4 mps 761 mmHg 91%
    05:00 +21°C° 0 mm 4 mps 761 mmHg 88%
    06:00 +21°C° 0 mm 4 mps 762 mmHg 86%
    07:00 +21°C° 0 mm 4 mps 762 mmHg 83%
    08:00 +25°C° 0 mm 4 mps 762 mmHg 74%
    09:00 +28°C° 0 mm 4 mps 763 mmHg 64%
    10:00 +30°C° 0 mm 5 mps 763 mmHg 55%
    11:00 +32°C° 0 mm 5 mps 762 mmHg 53%
    12:00 +33°C° 0 mm 6 mps 762 mmHg 51%
    13:00 +34°C° 0 mm 6 mps 761 mmHg 48%
    14:00 +33°C° 0 mm 6 mps 761 mmHg 55%
    15:00 +32°C° 0 mm 7 mps 761 mmHg 61%
    16:00 +30°C° 0 mm 7 mps 761 mmHg 68%
    17:00 +29°C° 0 mm 7 mps 761 mmHg 76%
    18:00 +27°C° 0 mm 6 mps 762 mmHg 83%
    19:00 +25°C° 0 mm 5 mps 763 mmHg 91%
    20:00 +25°C° 0 mm 5 mps 763 mmHg 93%
    21:00 +25°C° 0 mm 5 mps 763 mmHg 94%
    22:00 +23°C° 0 mm 5 mps 763 mmHg 95%
    23:00 +23°C° 0 mm 5 mps 763 mmHg 95%

    22 December, Friday

    Time Temperature Precipitation Wind Pressure Humidity
    00:00 +22°C° 0 mm 5 mps 762 mmHg 96%
    01:00 +22°C° 0 mm 5 mps 762 mmHg 96%
    02:00 +22°C° 0 mm 5 mps 762 mmHg 95%
    03:00 +21°C° 0 mm 5 mps 762 mmHg 94%
    04:00 +21°C° 0 mm 5 mps 761 mmHg 93%
    05:00 +21°C° 0 mm 5 mps 762 mmHg 91%
    06:00 +21°C° 0 mm 5 mps 762 mmHg 89%
    07:00 +21°C° 0 mm 5 mps 763 mmHg 87%
    08:00 +25°C° 0 mm 5 mps 763 mmHg 76%
    09:00 +27°C° 0 mm 6 mps 763 mmHg 64%
    10:00 +30°C° 0 mm 6 mps 764 mmHg 52%
    11:00 +32°C° 0 mm 7 mps 763 mmHg 51%
    12:00 +33°C° 0 mm 7 mps 762 mmHg 49%
    13:00 +34°C° 0 mm 8 mps 762 mmHg 47%
    14:00 +33°C° 0 mm 8 mps 762 mmHg 53%
    15:00 +32°C° 0 mm 8 mps 762 mmHg 58%
    16:00 +31°C° 0 mm 8 mps 761 mmHg 64%
    17:00 +29°C° 0 mm 8 mps 762 mmHg 71%
    18:00 +27°C° 0 mm 7 mps 763 mmHg 78%
    19:00 +24°C° 0 mm 7 mps 763 mmHg 85%
    20:00 +24°C° 0 mm 7 mps 763 mmHg 88%
    21:00 +23°C° 0 mm 6 mps 764 mmHg 91%
    22:00 +23°C° 0 mm 6 mps 764 mmHg 93%
    23:00 +22°C° 0 mm 6 mps 763 mmHg 93%
    Show more